Greenville/Spartanburg, SC

6:03 PM EDT on July 26, 2017 (GMT -0400)
Greenville-Spartanburg International

Weather History for KGSP - August, 2013

Change the Weather History Date:

Friday, August 30, 2013

  Actual Average Record
Temperature  
Mean Temperature 79 °F 77 °F  
Max Temperature 84 °F 87 °F 97 °F (1948)
Min Temperature 73 °F 67 °F 50 °F (1905)
Degree Days  
Heating Degree Days 0 0  
Month to date heating degree days 0 0  
Since 1 June heating degree days 0 2  
Since 1 July heating degree days 0 0  
Cooling Degree Days 14 12  
Month to date cooling degree days 337 412  
Year to date cooling degree days 1235 1424  
Since 1 June cooling degree days 1073 1223  
Growing Degree Days 28 (Base 50)    
Moisture  
Dew Point 70 °F    
Average Humidity 78    
Maximum Humidity 94    
Minimum Humidity 61    
Precipitation  
Precipitation 0.00 in 0.13 in 2.25 in (1933)
Month to date precipitation 6.15 4.36  
Year to date precipitation 53.19 32.39  
Snow  
Snow 0.00 in 0.00 in 0.00 in ()
Month to date snowfall 0.0 0.0  
Since 1 June snowfall 0.0 0.0  
Since 1 July snowfall 0.0 0.0  
Snow Depth 0.00 in    
Sea Level Pressure  
Sea Level Pressure 29.99 in    
Wind  
Wind Speed 5 mph (East)    
Max Wind Speed 13 mph    
Max Gust Speed 15 mph    
Visibility 9 miles    
Events Rain , Thunderstorm    
T = Trace of Precipitation, MM = Missing Value Source: NWS Daily Summary

Daily Weather History Graph

Daily Weather History Graph

Search for Another Location

Airport or City:

Trip Planner

Search our weather history database for the weather conditions in past years. The results will help you decide how hot, cold, wet, or windy it might be!

Date:

Astronomy

Aug. 30, 2013 Rise Set
Actual Time 7:00 AM EDT 7:57 PM EDT
Civil Twilight 6:34 AM EDT 8:23 PM EDT
Nautical Twilight 6:03 AM EDT 8:54 PM EDT
Astronomical Twilight 5:32 AM EDT 9:25 PM EDT
Moon 1:45 AM EDT (8/30) 4:05 PM EDT (8/30)
Length of Visible Light 13h 49m
Length of Day
12h 57m
Waning Crescent, 29% of the Moon is Illuminated
Aug 30
Waning Crescent
Sep 5
New
Sep 12
First Quarter
Sep 19
Full
Sep 26
Last Quarter

Hourly Weather History & Observations

Time (EDT) Temp. Heat Index Dew Point Humidity Pressure Visibility Wind Dir Wind Speed Gust Speed Precip Events Conditions
12:08 AM 78.8 °F - 73.4 °F 83% 29.99 in 8.0 mi ESE 8.1 mph - 0.00 in Rain Light Rain
12:19 AM 77.0 °F - 71.6 °F 83% 29.99 in 7.0 mi SE 4.6 mph - 0.00 in Thunderstorm Overcast
12:29 AM 77.0 °F - 71.6 °F 83% 30.00 in 8.0 mi SE 4.6 mph - 0.00 in Thunderstorm Overcast
12:50 AM 77.0 °F - 71.6 °F 83% 30.01 in 9.0 mi South 3.5 mph - 0.00 in   Overcast
12:53 AM 77.0 °F - 72.0 °F 84% 29.96 in 9.0 mi Calm Calm - 0.00 in   Overcast
1:07 AM 77.0 °F - 71.6 °F 83% 30.01 in 8.0 mi Calm Calm - N/A Thunderstorm Overcast
1:22 AM 75.2 °F - 71.6 °F 89% 30.01 in 7.0 mi East 3.5 mph - N/A   Mostly Cloudy
1:44 AM 77.0 °F - 71.6 °F 83% 30.00 in 8.0 mi ENE 6.9 mph - N/A   Mostly Cloudy
1:53 AM 77.0 °F - 72.0 °F 84% 29.96 in 8.0 mi ENE 6.9 mph - N/A   Overcast
2:16 AM 78.8 °F - 71.6 °F 78% 30.00 in 8.0 mi NNE 5.8 mph - N/A   Overcast
2:53 AM 75.9 °F - 73.0 °F 91% 29.96 in 7.0 mi NNE 9.2 mph - N/A   Overcast
3:53 AM 75.9 °F - 72.0 °F 87% 29.96 in 6.0 mi North 6.9 mph - N/A   Mostly Cloudy
4:53 AM 73.9 °F - 71.1 °F 91% 29.97 in 8.0 mi NNE 5.8 mph - N/A   Mostly Cloudy
5:53 AM 73.9 °F - 71.1 °F 91% 29.98 in 7.0 mi NE 6.9 mph - N/A   Overcast
6:39 AM 73.4 °F - 71.6 °F 94% 30.03 in 6.0 mi NE 4.6 mph - N/A   Mostly Cloudy
6:53 AM 73.0 °F - 71.1 °F 93% 30.00 in 6.0 mi NE 4.6 mph - N/A   Overcast
7:23 AM 73.4 °F - 71.6 °F 94% 30.04 in 5.0 mi NE 4.6 mph - N/A   Overcast
7:53 AM 73.9 °F - 70.0 °F 87% 30.02 in 6.0 mi NE 4.6 mph - N/A   Overcast
8:36 AM 73.4 °F - 69.8 °F 88% 30.06 in 7.0 mi ENE 8.1 mph - N/A   Overcast
8:53 AM 73.9 °F - 69.1 °F 85% 30.03 in 9.0 mi ENE 10.4 mph - N/A   Overcast
9:53 AM 75.0 °F - 68.0 °F 79% 30.04 in 10.0 mi East 6.9 mph - N/A   Overcast
10:48 AM 75.2 °F - 68.0 °F 78% 30.08 in 8.0 mi East 5.8 mph - N/A   Mostly Cloudy
10:53 AM 75.9 °F - 68.0 °F 76% 30.04 in 10.0 mi Variable 4.6 mph - N/A   Overcast
11:53 AM 77.0 °F - 69.1 °F 76% 30.04 in 10.0 mi Calm Calm - N/A   Overcast
12:53 PM 79.0 °F - 69.1 °F 72% 30.03 in 10.0 mi Variable 3.5 mph - N/A   Overcast
1:53 PM 81.0 °F 84.1 °F 69.1 °F 67% 30.01 in 10.0 mi Variable 3.5 mph - N/A   Overcast
2:03 PM 80.6 °F 83.9 °F 69.8 °F 70% 30.05 in 9.0 mi Calm Calm - N/A   Overcast
2:53 PM 82.0 °F 85.9 °F 70.0 °F 67% 29.99 in 10.0 mi East 4.6 mph - N/A   Scattered Clouds
3:22 PM 82.4 °F 86.3 °F 69.8 °F 66% 30.01 in 10.0 mi Calm Calm - N/A   Mostly Cloudy
3:53 PM 84.0 °F 87.8 °F 69.1 °F 61% 29.96 in 10.0 mi East 3.5 mph - N/A   Mostly Cloudy
4:53 PM 82.9 °F 86.5 °F 69.1 °F 63% 29.94 in 10.0 mi Variable 3.5 mph - N/A   Mostly Cloudy
5:00 PM 84.2 °F 88.4 °F 69.8 °F 62% 29.98 in 10.0 mi Calm Calm - N/A   Scattered Clouds
5:53 PM 82.0 °F 85.5 °F 69.1 °F 65% 29.94 in 10.0 mi Variable 4.6 mph - N/A   Clear
6:53 PM 81.0 °F 84.4 °F 70.0 °F 69% 29.94 in 10.0 mi SSE 4.6 mph - N/A   Clear
7:53 PM 75.9 °F - 71.1 °F 85% 29.95 in 10.0 mi SSE 4.6 mph - N/A   Clear
8:53 PM 75.0 °F - 71.1 °F 87% 29.96 in 10.0 mi SE 5.8 mph - N/A   Mostly Cloudy
9:53 PM 75.0 °F - 70.0 °F 84% 29.96 in 10.0 mi SSE 5.8 mph - N/A   Overcast
10:53 PM 75.0 °F - 69.1 °F 82% 29.95 in 10.0 mi South 5.8 mph - N/A   Overcast
11:53 PM 75.0 °F - 68.0 °F 79% 29.96 in 10.0 mi SSW 5.8 mph - N/A   Overcast